Lid_Strength_Index
4 4 4 4 4 4 4 4 4 4 3 3 3 3 3 3 3 5 8 6 5 1 -2 2 2 2 3 5 4 4 12 14 12 11 10 7 8 6 5 7 5 5 5 4 2
4 4 4 4 4 4 4 4 4 4 4 4 4 3 3 4 6 8 4 1 0 0 2 3 5 4 6 6 6 9 12 12 8 8 9 8 7 7 7 7 7 6 4 3 3
4 4 4 4 4 4 4 4 4 4 4 4 4 3 3 4 8 8 -0 0 -2 1 1 2 3 6 8 7 7 8 12 9 8 6 7 8 8 6 8 9 7 8 6 4 4
4 4 4 4 4 4 4 4 4 4 4 4 4 3 4 6 13 5 -2 -1 -2 1 4 4 5 8 10 9 7 10 8 8 7 6 6 8 6 8 7 7 5 5 4 4 4
4 4 3 4 4 4 3 4 4 4 4 4 4 3 6 10 10 5 -2 -1 0 4 5 7 8 9 10 9 8 9 8 7 6 6 6 6 7 8 7 5 4 4 4 5 4
4 3 3 4 3 3 3 4 4 4 3 3 4 3 7 13 7 5 0 1 2 5 6 7 8 8 9 10 8 7 8 8 7 7 6 7 7 7 7 5 5 5 5 4 4
4 4 4 4 4 4 4 4 4 3 2 2 3 4 7 9 5 5 5 3 2 4 7 6 7 8 9 9 7 9 11 10 8 7 7 6 9 10 6 5 6 6 5 5 4
4 4 4 4 4 4 4 5 4 3 3 3 2 4 9 4 4 4 6 6 2 3 7 5 7 9 10 8 9 11 12 14 10 8 7 7 12 9 6 6 7 6 5 5 4
4 4 4 4 4 5 5 5 3 3 2 2 5 7 9 2 5 6 5 6 4 5 6 4 8 11 10 11 13 14 15 13 12 7 8 9 12 8 6 7 7 6 6 5 5
4 4 4 5 5 5 5 4 4 2 2 3 3 9 9 10 9 8 7 4 6 7 7 9 11 13 14 14 14 15 14 13 13 9 9 10 11 9 7 7 8 7 6 6 5
4 5 5 5 5 6 7 12 13 14 13 15 13 10 11 9 8 8 8 6 6 9 12 11 14 14 12 11 11 11 12 12 11 8 10 11 11 10 8 8 8 7 7 6 6
5 5 5 6 6 6 9 12 11 11 15 11 11 12 10 11 12 9 9 8 8 11 10 12 14 11 11 10 11 11 13 13 11 9 10 10 11 10 9 8 8 7 7 6 6
5 5 5 5 5 8 10 10 9 12 16 13 11 11 11 12 12 10 9 10 10 10 10 12 11 9 10 11 11 11 12 13 12 10 8 10 13 11 9 8 7 7 6 6 6
5 4 5 4 8 7 7 7 6 8 16 13 12 10 10 10 12 8 8 10 10 10 9 11 8 9 10 11 10 13 9 10 11 13 14 10 19 13 11 10 9 8 7 6 5
4 3 3 4 8 8 6 6 7 10 19 9 10 7 10 12 11 10 7 9 12 12 12 11 10 10 11 10 9 10 8 9 11 14 14 11 16 14 11 12 10 8 7 6 5
3 3 2 5 7 6 6 7 10 15 18 12 10 11 11 10 10 9 10 8 8 10 11 11 8 9 9 8 7 7 9 10 12 14 16 14 13 14 13 11 10 8 7 6 5
3 3 4 4 9 6 7 10 15 18 12 14 14 12 12 12 11 10 11 11 13 14 15 12 11 9 8 10 8 8 12 16 17 17 16 14 14 12 10 9 8 8 7 6 5
3 4 5 3 5 6 9 13 19 13 15 13 13 12 13 11 12 11 12 13 10 12 15 17 15 10 9 10 10 10 12 16 20 19 17 14 16 14 8 7 7 6 6 5 5
3 7 7 6 5 7 12 17 17 14 13 13 13 14 14 12 12 12 12 13 10 11 15 16 16 11 10 9 8 11 12 10 15 17 17 14 15 12 9 8 8 7 6 6 5
6 10 9 5 7 10 14 15 15 11 12 12 15 13 16 14 14 14 13 10 11 9 10 13 17 12 11 9 9 9 10 14 15 18 19 17 16 14 12 9 8 8 7 6 5
10 11 7 5 9 12 16 16 12 10 10 13 14 15 14 14 14 14 12 10 9 11 10 12 14 14 11 12 12 12 11 13 12 15 16 19 15 13 11 10 8 7 7 6 6
12 14 8 8 13 14 15 13 10 10 9 11 11 13 13 12 13 13 12 10 7 9 12 10 13 16 14 10 11 12 11 13 14 16 17 16 13 10 11 10 9 7 6 5 5
11 13 8 9 16 16 13 12 10 10 10 11 11 11 11 13 14 11 10 7 7 8 11 11 14 18 15 14 13 14 10 10 12 15 16 14 13 10 10 10 10 10 8 5 5
10 15 12 12 13 13 14 13 12 8 9 9 9 9 11 13 11 11 11 8 7 8 7 9 13 16 18 17 15 17 15 13 13 14 16 14 13 10 9 10 10 9 9 6 5
13 15 13 15 15 13 12 13 12 12 8 8 9 9 11 13 13 12 10 9 8 7 8 11 15 15 15 15 16 16 16 15 15 13 13 12 13 11 10 10 9 7 8 7 5
13 13 12 12 11 11 12 12 12 10 10 10 11 9 9 12 11 12 11 11 10 9 10 11 15 14 17 16 16 17 15 13 13 12 13 13 12 11 11 8 8 7 8 6 5
9 8 10 11 11 12 12 11 11 9 9 8 9 10 10 9 7 7 8 8 8 10 11 13 14 17 20 15 14 15 13 13 11 11 12 14 12 10 10 9 9 8 7 6 5